Tracking 19176 objects as of 27-May-2018
HD Live streaming from Space Station
objects crossing your sky now

FENGYUN 1C DEB

Track FENGYUN 1C DEB now!
10-day predictions


NORAD ID: 30206
Int'l Code: 1999-025VP
Perigee: 644.1 km
Apogee: 875.9 km
Inclination: 98.4 °
Period: 99.9 minutes
Semi major axis: 7130 km
RCS: 0.048 m2 (small)
Launch date: May 10, 1999
Source: People's Republic of China (PRC)
Launch site: Taiyaun Space Center, China (TSC)

Note: This is SATELLITE DEBRIS
aabbcc
Your satellite tracking list
Your tracking list is empty




NASA's NSSDC Master Catalog

Two Line Element Set (TLE):
1 30206U 99025VP  18147.05109068 +.00000123 +00000-0 +44827-4 0  9991
2 30206 098.4019 182.7857 0162539 114.0496 247.7798 14.41720249596292
Source of the keplerian elements: AFSPC